Find Local Weather

World > North America > United States > Virginia

Alexandria, Virginia Regional Weather

Lat: 38.82N, Lon: 77.09W
Wx Zone: VAZ054
Warning FLW WEATHER ALERT - (More Info. Click Here) Warning
Feedback
Expires:201807211000;;815406
ASUS41 KAKQ 210914
RWRAKQ

REGIONAL WEATHER ROUNDUP
NATIONAL WEATHER SERVICE WAKEFIELD VA
500 AM EDT SAT JUL 21 2018

Note: "fair" indicates few or no clouds below 12,000 feet with no
significant weather and/or obstructions to visibility. * = Denotes
station may not report precipitation (e.g., rain,snow,etc.),
thunder or fog.


VAZ042-051-052>054-056-211000-
NORTHERN VIRGINIA
  
CITY           SKY/WX    TMP DP  RH WIND       PRES   REMARKS
WASH NATIONAL  CLOUDY    74  66  76 E8        29.98F                  
DULLES         FAIR      70  66  87 E10       29.97F                  
FORT BELVOIR   CLOUDY    71  66  84 CALM      29.97F                  
QUANTICO       CLOUDY    73  69  87 E12       29.97F                  
FREDERICKSBRG* MOCLDY    68  64  87 CALM      29.96S                  
STAFFORD*      FAIR      65  65 100 CALM      30.01S                  
WARRENTON      FAIR      67  62  83 CALM      29.96F                  
CULPEPER*      FAIR      65  63  93 CALM      29.98F                  
MANASSAS*      FAIR      70  66  87 E9        29.97F                  
LEESBURG*      FAIR      70  68  94 CALM      29.99F                  
WINCHESTER     MOCLDY    64  61  88 SE5       29.99F                  
FRONT ROYAL*   PTSUNNY   66  63  88 CALM      29.96S                  
LURAY*         CLOUDY    64  64 100 CALM      29.97S                  
$$


SKY/WX - Weather  TMP - Temperature  DP - Dewpoint  RH - Relative Humidity
WIND - Wind Direction/Speed PRES - Barometric Pressure